Flag for U.S.A. Weather past 2 weeks in Orlando, Florida, U.S.A.

Now
63 °F

Passing clouds.


Feels Like: 63 °F
Forecast: 47 / 69 °F
Wind: 12 mph from West

Location: Orlando Executive Airport

Current Time: Jan 30, 2015 at 11:16:42 AM

Latest Report: Jan 30, 2015 at 9:53 AM


Visibility: 10 mi

Pressure: 30.22 "Hg

Humidity: 73%

Dew point: 54 °F

Location of OrlandoLocation

Historic Weather in Orlando — Graph

°F

Orlando temperature yesterday

Maximum temperature yesterday: 70 °F (at 2:53 PM)
Minimum temperature yesterday: 44 °F (at 5:53 AM)
Average temperature yesterday: 57 °F

Past Weeks' High & Low Weather Summary

 TemperatureHumidityPressure
High78 °F (Jan 23, 2:53 PM)97% (Jan 16, 5:53 AM)30.35 "Hg (Jan 16, 5:53 AM)
Low44 °F (Jan 27, 5:53 AM)24% (Jan 19, 1:53 PM)29.80 "Hg (Jan 24, 5:03 AM)
Average59 °F70%30.10 "Hg
* Reported Jan 15 9:53 AM — Jan 30 9:53 AM, Orlando, Weather by CustomWeather, © 2014

Note: Actual official high and low records may vary slightly from our data, if they occured in-between our weather recording intervals... More about our weather records

Advertising

Orlando weather history for previous 24 hours

 ConditionsComfort  
Time TempWeatherWind HumidityBarometerVisibility
9:53 AM
Jan 30
63 °FPassing clouds.12 mph73%30.22 "Hg10 mi
8:53 AM60 °FSunny.6 mph75%30.21 "Hg10 mi
7:53 AM51 °FSunny.3 mph80%30.22 "Hg10 mi
6:53 AM50 °FClear.No wind77%30.21 "Hg10 mi
5:53 AM52 °FClear.No wind77%30.21 "Hg10 mi
4:53 AM52 °FClear.6 mph77%30.20 "Hg10 mi
3:53 AM53 °FClear.No wind80%30.19 "Hg10 mi
2:53 AM53 °FClear.5 mph83%30.19 "Hg10 mi
1:53 AM54 °FClear.3 mph83%30.21 "Hg10 mi
12:53 AM54 °FClear.No wind80%30.23 "Hg10 mi
11:53 PM
Jan 29
54 °FClear.No wind80%30.24 "Hg10 mi
10:53 PM55 °FClear.No wind77%30.24 "Hg10 mi
9:53 PM56 °FClear.No wind72%30.26 "Hg10 mi
8:53 PM60 °FClear.No wind65%30.27 "Hg10 mi
7:53 PM61 °FClear.3 mph62%30.27 "Hg10 mi
6:53 PM61 °FClear.9 mph58%30.25 "Hg10 mi
5:53 PM65 °FSunny.7 mph51%30.24 "Hg10 mi
4:53 PM69 °FSunny.7 mph44%30.24 "Hg10 mi
3:53 PM70 °FSunny.3 mph41%30.23 "Hg10 mi
2:53 PM70 °FSunny.8 mph44%30.22 "Hg10 mi
1:53 PM69 °FSunny.3 mph44%30.25 "Hg10 mi
12:53 PM69 °FSunny.6 mph45%30.29 "Hg10 mi
11:53 AM66 °FSunny.6 mph52%30.32 "Hg10 mi
Weather by CustomWeather, © 2014

See weather overviewHow to use our weather pages